Location: Vibo Valentia
(38.6670°N, 16.1000°E)
Time: 01:15:32
(UTC+02:00)

STARLINK-1329 - Pass Details

Date: 30 May 2020
Orbit: 548 x 551 km, 53.0° (Epoch: 10 July)

Event Time Altitude Azimuth Distance (km) Brightness Sun altitude
Exits shadow 01:08:59 18° 57° (ENE) 1,366 6.0 -29.4°
Drops below altitude 10° 01:10:08 10° 54° (NE) 1,810 6.7 -29.4°
Enters shadow 02:12:02 -59° 235° (SW) 11,602 10.3 -26.8°
